This demonstration page uses our WeatherBlox Daily Observations layout. Learn more.

Left ArrowRight Arrow

40.92945, -100.16068

Hourly Observations for November 15, 2015

Temp ( °F °C ) Dew Point ( °F °C ) Humidity (%) Winds ( mph kmh ) Pressure ( in mb ) Visibility ( mi km ) Precip ( " mm )
12:15 am 00:15 Clear 45 7 37 2.5 73 73 SE 5 7 30.09 1019 10 16 N/A
12:35 am 00:35 Clear 45 7 36 2.3 72 72 ESE 5 7 30.09 1019 10 16 N/A
12:55 am 00:55 Clear 45 7.2 36 2.3 71 71 SE 5 7 30.09 1019 10 16 N/A
1:15 am 01:15 Clear 43 6.1 35 1.8 74 74 S 8 13 30.06 1018 10 16 N/A
1:35 am 01:35 Clear 42 5.3 36 2.1 80 80 SSE 6 9 30.06 1018 10 16 N/A
1:55 am 01:55 Clear 41 5 36 2 81 81 SSE 7 11 30.06 1018 10 16 N/A
2:15 am 02:15 Clear 41 5 36 2.2 82 82 SE 7 11 30.06 1018 10 16 N/A
2:35 am 02:35 Clear 41 5.2 36 2.1 81 81 SE 6 9 30.06 1018 10 16 N/A
2:55 am 02:55 Clear 40 4.6 35 1.8 82 82 SE 5 7 30.06 1018 10 16 N/A
3:15 am 03:15 Clear 38 3.3 34 1.1 86 86 SSE 7 11 30.09 1019 10 16 N/A
3:35 am 03:35 Clear 38 3.2 34 1.1 86 86 SSE 6 9 30.09 1019 10 16 N/A
3:55 am 03:55 Clear 35 1.5 32 0.1 91 91 SE 5 7 30.09 1019 10 16 N/A
4:15 am 04:15 Clear 32 undefined 30 -1.3 91 91 SE 3 6 30.12 1020 10 16 N/A
4:35 am 04:35 Clear 31 -0.3 29 -1.5 92 92 E 5 7 30.12 1020 10 16 N/A
4:55 am 04:55 Clear 31 -0.5 29 -1.5 93 93 E 5 7 30.09 1019 10 16 N/A
5:15 am 05:15 Clear 31 -0.7 29 -1.6 94 94 E 5 7 30.09 1019 10 16 N/A
5:35 am 05:35 Clear 31 -0.6 29 -1.4 94 94 E 5 7 30.09 1019 10 16 N/A
5:55 am 05:55 Clear 31 -0.7 29 -1.6 94 94 E 5 7 30.09 1019 10 16 N/A
6:15 am 06:15 Clear 31 -0.7 29 -1.5 94 94 ENE 6 9 30.09 1019 10 16 N/A
6:35 am 06:35 Clear 30 -1 29 -1.8 94 94 E 5 7 30.09 1019 10 16 N/A
6:55 am 06:55 Clear 30 -1.1 28 -2 94 94 ESE 3 6 30.06 1018 10 16 N/A
7:15 am 07:15 Clear 30 -1 29 -1.7 95 95 ESE 5 7 30.06 1018 10 16 N/A
7:35 am 07:35 Sunny 29 -1.6 28 -2.4 94 94 ESE 6 9 30.06 1018 10 16 N/A
7:55 am 07:55 Sunny 30 -0.9 29 -1.7 94 94 E 3 6 30.06 1018 10 16 N/A
8:15 am 08:15 Sunny 32 undefined 31 -0.7 95 95 N N/A 30.06 1018 10 16 N/A
8:35 am 08:35 Sunny 38 3.2 36 2.2 93 93 SSE 5 7 30.03 1017 10 16 N/A
8:55 am 08:55 Sunny 41 4.8 38 3.2 90 90 S 8 13 30.00 1016 10 16 N/A
9:15 am 09:15 Sunny 44 6.4 39 3.9 84 84 S 10 17 30.00 1016 10 16 N/A
9:35 am 09:35 Sunny 46 7.5 39 4.1 79 79 S 13 20 29.97 1015 10 16 N/A
9:55 am 09:55 Sunny 47 8.3 40 4.5 77 77 S 12 19 29.94 1014 10 16 N/A
10:15 am 10:15 Sunny 48 8.8 40 4.6 75 75 S 13 20 29.94 1014 10 16 N/A
10:35 am 10:35 Sunny 49 9.2 41 4.8 74 74 S 12 19 29.94 1014 10 16 N/A
10:55 am 10:55 Sunny 49 9.5 41 5 74 74 S 14 22 29.91 1013 10 16 N/A
11:15 am 11:15 Sunny 50 9.8 42 5.3 74 74 S 16 26 29.91 1013 10 16 N/A
11:35 am 11:35 Partly Cloudy 49 9.5 41 5 74 74 SSE 17 28 29.91 1013 10 16 N/A
11:55 am 11:55 Mostly Cloudy 46 8 41 4.9 81 81 S 17 28 29.94 1014 10 16 N/A
12:15 pm 12:15 Cloudy 46 7.8 41 5 83 83 S 17 28 29.91 1013 10 16 N/A
12:35 pm 12:35 Cloudy 46 7.7 41 5 83 83 SSE 18 30 29.91 1013 10 16 N/A
12:55 pm 12:55 Cloudy 46 7.5 41 5.1 85 85 SSE 14 22 29.91 1013 10 16 N/A
1:15 pm 13:15 Cloudy 46 7.7 41 5.2 84 84 S 15 24 29.88 1012 10 16 N/A
1:35 pm 13:35 Cloudy 47 8.1 42 5.6 84 84 S 14 22 29.88 1012 10 16 N/A
1:55 pm 13:55 Cloudy 48 8.8 43 6.1 83 83 S 12 19 29.83 1010 10 16 N/A
2:15 pm 14:15 Cloudy 49 9.2 43 6.3 82 82 S 14 22 29.83 1010 10 16 N/A
2:35 pm 14:35 Cloudy 51 10.3 44 6.8 79 79 S 17 28 29.83 1010 10 16 N/A
2:55 pm 14:55 Mostly Cloudy 52 10.9 44 6.9 77 77 S 13 20 29.80 1009 10 16 N/A
3:15 pm 15:15 Partly Cloudy 55 12.5 45 7.2 70 70 S 15 24 29.77 1008 10 16 N/A
3:35 pm 15:35 Partly Cloudy 55 13 46 7.7 70 70 SSE 15 24 29.74 1007 10 16 N/A
3:55 pm 15:55 Partly Cloudy 56 13.2 46 8 71 71 SSE 15 24 29.74 1007 10 16 N/A
4:15 pm 16:15 Mostly Cloudy 55 13 47 8.2 73 73 SSE 12 19 29.74 1007 10 16 N/A
4:35 pm 16:35 Cloudy 55 12.8 47 8.5 75 75 SSE 14 22 29.74 1007 10 16 N/A
4:55 pm 16:55 Cloudy 54 12.4 47 8.5 77 77 SSE 13 20 29.74 1007 10 16 N/A
5:15 pm 17:15 Mostly Cloudy 53 11.5 47 8.1 80 80 SSE 13 20 29.74 1007 10 16 N/A
5:35 pm 17:35 Partly Cloudy 51 10.6 46 8 84 84 SSE 12 19 29.74 1007 10 16 N/A
5:55 pm 17:55 Mostly Cloudy 51 10.6 46 8 84 84 SSE 13 20 29.74 1007 10 16 N/A
6:15 pm 18:15 Partly Cloudy 50 10.2 46 8 86 86 SSE 14 22 29.77 1008 10 16 N/A
6:35 pm 18:35 Clear 50 10 46 7.8 86 86 SSE 13 20 29.74 1007 10 16 N/A
6:55 pm 18:55 Clear 50 9.8 46 8 89 89 SSE 14 22 29.74 1007 10 16 N/A
7:15 pm 19:15 Clear 50 10 47 8.1 88 88 SSE 16 26 29.74 1007 10 16 N/A
7:35 pm 19:35 Clear 50 10 47 8.1 88 88 SSE 16 26 29.74 1007 10 16 N/A
7:55 pm 19:55 Clear 50 9.8 47 8.1 89 89 SSE 18 30 29.74 1007 10 16 N/A
8:15 pm 20:15 Clear 50 10 47 8.3 89 89 SSE 17 28 29.71 1006 10 16 N/A
8:35 pm 20:35 Clear 50 10.2 47 8.6 90 90 SSE 20 31 29.71 1006 10 16 N/A
8:55 pm 20:55 Clear 51 10.3 48 8.7 90 90 SSE 16 26 29.71 1006 10 16 N/A
9:15 pm 21:15 Mostly Cloudy 51 10.7 49 9.2 91 91 SSE 20 31 29.68 1005 10 16 N/A
9:35 pm 21:35 Cloudy 53 11.5 50 9.8 89 89 SSE 17 28 29.68 1005 10 16 N/A
9:55 pm 21:55 Cloudy 54 12 50 10.1 88 88 SSE 20 31 29.68 1005 10 16 N/A
10:15 pm 22:15 Cloudy 54 12.1 51 10.3 89 89 SSE 18 30 29.68 1005 10 16 N/A
10:35 pm 22:35 Cloudy 54 12.2 51 10.5 89 89 SSE 18 30 29.68 1005 10 16 N/A
10:55 pm 22:55 Cloudy 54 12.3 51 10.5 89 89 SSE 16 26 29.68 1005 10 16 N/A
11:15 pm 23:15 Cloudy 55 12.5 51 10.6 88 88 SSE 17 28 29.65 1004 10 16 N/A
11:35 pm 23:35 Cloudy 55 12.5 51 10.7 89 89 SSE 14 22 29.65 1004 10 16 N/A
11:55 pm 23:55 Cloudy 55 12.6 51 10.8 89 89 SSE 17 28 29.65 1004 10 16 N/A

Powered by AerisWeather